Location: Qazi Observatory
(41.6337°N, 88.1517°W)
Time: 10:59:39
(UTC-05:00)

Amateur Radio Satellites - All Passes

Search period start: 25 April 2015 10:29
Search period end: 26 April 2015 10:29
Location: Qazi Observatory, 41.6337°N, 88.1517°W

Satellite Date Start Highest point End Downlink Frequencies (MHz)
Time Altitude Azimuth
PCSat 25 Apr 10:29:43 10:33:38 19° 318° (NW) 10:37:26 145.827
BEESAT 3 25 Apr 10:33:46 10:36:14 16° 40° (NE) 10:38:48 437.485
BEESAT 2 25 Apr 10:34:46 10:36:56 14° 39° (NE) 10:39:12 435.950
UWE-3 25 Apr 10:36:28 10:41:08 60° 100° (E) 10:45:46 435.000/436.395/437.385
50 SAT 25 Apr 10:38:03 10:39:49 13° 89° (E) 10:41:47 437.505
BUGSAT 1 25 Apr 10:43:34 10:47:03 30° 70° (ENE) 10:50:37 437.445
POLYITAN 1 25 Apr 10:45:17 10:49:20 47° 73° (ENE) 10:53:27 437.675
DUCHIFAT 1 25 Apr 10:46:55 10:50:56 47° 73° (ENE) 10:55:00 145.980
FUNcube-1 25 Apr 10:47:20 10:51:55 61° 100° (E) 10:56:27 145.935
ANTELSAT 25 Apr 10:51:07 10:55:37 72° 258° (WSW) 11:00:16 437.575/2403.000
UKube-1 25 Apr 10:53:49 10:57:51 38° 98° (E) 11:01:55 .
DOVE 4 25 Apr 10:56:50 11:00:55 24° 292° (WNW) 11:05:01 437.250
COMPASS 1 25 Apr 11:02:30 11:05:40 20° 292° (WNW) 11:08:43 437.405
QB50P1 25 Apr 11:03:55 11:08:06 77° 76° (ENE) 11:12:21 145.935-145.965
HO-68 25 Apr 11:06:16 11:12:36 34° 297° (WNW) 11:18:47 435.675
HUMSAT D 25 Apr 11:11:24 11:15:40 54° 99° (E) 11:19:54 437.325/437.525
ZACube-1 25 Apr 11:12:33 11:17:10 72° 285° (WNW) 11:21:44 437.345
Oscar 11 25 Apr 11:13:24 11:17:26 38° 289° (WNW) 11:21:26 145.826/435.025
VELOX 1 25 Apr 11:15:30 11:19:29 32° 96° (E) 11:23:31 145.980
YUBILEINY 25 Apr 11:21:41 11:30:32 87° 96° (E) 11:39:25 435.215
CUBEBUG 1 25 Apr 11:22:46 11:25:50 19° 92° (E) 11:29:02 437.445
DELFI C3 25 Apr 11:23:05 11:26:48 35° 288° (WNW) 11:30:28 145.870
QB50P2 25 Apr 11:29:59 11:34:06 52° 260° (W) 11:38:16 145.880/145.840
AIST 2 25 Apr 11:32:08 11:34:57 17° 41° (NE) 11:37:49 435.215
AISAT 25 Apr 11:32:58 11:37:20 53° 100° (E) 11:41:43 437.250
SO-50 25 Apr 11:33:44 11:38:04 41° 116° (ESE) 11:42:36 436.795
TIGRISAT 25 Apr 11:42:53 11:46:26 22° 268° (W) 11:49:59 435.000
CINEMA 3 25 Apr 11:45:17 11:48:18 16° 296° (WNW) 11:51:07 145.822/145.860
DX 1 25 Apr 11:46:02 11:50:17 52° 287° (WNW) 11:54:32 434.975-435.025
CUBEBUG 2 25 Apr 11:46:33 11:50:23 24° 293° (WNW) 11:54:07 437.445
UNISAT 6 25 Apr 11:47:17 11:50:39 20° 269° (W) 11:53:55 437.425
NANOSAT C BR1 25 Apr 11:48:51 11:52:39 33° 263° (W) 11:56:28 145.865
POPSAT HIP 1 25 Apr 11:51:56 11:55:41 30° 264° (W) 11:59:25 437.405
AIST 1 25 Apr 12:01:57 12:06:13 72° 80° (E) 12:10:29
ESTCUBE 1 25 Apr 12:10:25 12:14:54 72° 102° (ESE) 12:19:22 437.505/2401.250
BEESAT 3 25 Apr 12:10:39 12:14:44 67° 240° (WSW) 12:18:44 437.485
50 SAT 25 Apr 12:11:03 12:15:00 49° 287° (WNW) 12:18:52 437.505
BEESAT 2 25 Apr 12:11:29 12:15:38 79° 239° (WSW) 12:19:41 435.950
UWE-3 25 Apr 12:14:22 12:17:14 16° 296° (WNW) 12:19:55 435.000/436.395/437.385
Cosmos 2491 25 Apr 12:14:59 12:21:17 21° 279° (W) 12:27:10 435.465 / 435.565
TISAT 1 25 Apr 12:16:18 12:18:41 15° 90° (E) 12:21:15 437.305
Cosmos 2504 25 Apr 12:19:00 12:24:58 22° 81° (E) 12:31:17 435.465 / 435.565
BUGSAT 1 25 Apr 12:19:30 12:22:36 21° 267° (W) 12:25:38 437.445
ISS 25 Apr 12:22:51 12:26:04 65° 142° (SE) 12:29:19 145.825
POLYITAN 1 25 Apr 12:23:09 12:25:36 15° 270° (W) 12:27:52 437.675
DUCHIFAT 1 25 Apr 12:24:41 12:27:05 14° 270° (W) 12:29:19 145.980
FUNcube-1 25 Apr 12:25:08 12:27:47 15° 296° (WNW) 12:30:16 145.935
UKube-1 25 Apr 12:30:34 12:33:46 20° 294° (WNW) 12:36:52 .
SPROUT 25 Apr 12:44:08 12:48:13 39° 98° (E) 12:52:18 437.525
HUMSAT D 25 Apr 12:48:29 12:51:01 15° 295° (WNW) 12:53:23 437.325/437.525
VELOX 1 25 Apr 12:52:20 12:55:56 24° 292° (WNW) 12:59:26 145.980
CUBEBUG 1 25 Apr 12:58:19 13:02:23 38° 289° (WNW) 13:06:26 437.445
AIST 2 25 Apr 13:09:46 13:13:58 62° 241° (WSW) 13:18:04 435.215
AISAT 25 Apr 13:10:46 13:13:33 16° 295° (WNW) 13:16:10 437.250
SO-50 25 Apr 13:14:42 13:18:46 27° 316° (NW) 13:22:54 436.795
Oscar 19 25 Apr 13:15:47 13:20:52 63° 73° (ENE) 13:26:00 437.125/150
YUBILEINY 25 Apr 13:22:21 13:28:46 21° 299° (WNW) 13:34:47 435.215
RS-15 25 Apr 13:32:15 13:41:14 33° 107° (ESE) 13:50:40 29.354- 29.394
ITUPSAT 1 25 Apr 13:47:03 13:50:47 23° 93° (E) 13:54:37 437.325
ESTCUBE 1 25 Apr 13:49:22 13:51:15 12° 297° (WNW) 13:52:56 437.505/2401.250
ITAMSAT 1 25 Apr 13:50:04 13:54:53 42° 70° (ENE) 13:59:46 435.822/435.867
TISAT 1 25 Apr 13:50:41 13:54:47 47° 287° (WNW) 13:58:52 437.305
ISS 25 Apr 13:59:58 14:02:41 23° 340° (NNW) 14:05:23 145.825
JAS-2 25 Apr 14:02:31 14:06:03 14° 55° (NE) 14:09:57 435.910
Cosmos 2504 25 Apr 14:08:35 14:17:30 83° 279° (W) 14:26:20 435.465 / 435.565
AO-7 25 Apr 14:14:42 14:20:37 23° 54° (NE) 14:26:49 29.400- 29.500
BEESAT 25 Apr 14:17:29 14:22:05 48° 99° (E) 14:26:41 436.000
Gurwin Techsat 1B 25 Apr 14:17:41 14:22:56 64° 73° (ENE) 14:28:13 435.225
SWISSCUBE 25 Apr 14:19:54 14:24:35 55° 100° (E) 14:29:15 437.505
SPROUT 25 Apr 14:20:56 14:24:03 19° 293° (WNW) 14:27:04 437.525
Oscar 19 25 Apr 14:57:34 15:00:45 16° 271° (W) 15:03:42 437.125/150
STARS 25 Apr 15:13:02 15:16:23 21° 93° (E) 15:19:51 437.465
ITUPSAT 1 25 Apr 15:24:25 15:28:49 37° 290° (WNW) 15:33:10 437.325
ITAMSAT 1 25 Apr 15:30:22 15:34:35 24° 267° (W) 15:38:41 435.822/435.867
HORYU 2 25 Apr 15:36:24 15:40:53 79° 75° (ENE) 15:45:25 437.375
ISS 25 Apr 15:38:03 15:39:54 14° 360° (N) 15:41:46 145.825
RS-15 25 Apr 15:41:59 15:52:51 70° 308° (NW) 16:04:00 29.354- 29.394
JAS-2 25 Apr 15:42:12 15:49:57 65° 72° (ENE) 15:57:28 435.910
GONETS M04 25 Apr 15:46:08 15:53:16 30° 84° (E) 16:00:42
PCSat 25 Apr 15:50:23 15:52:41 13° 36° (NE) 15:55:10 145.827
KKS-1 25 Apr 15:53:28 15:58:00 88° 274° (W) 16:02:29 437.445
BEESAT 25 Apr 15:56:13 15:59:37 19° 295° (WNW) 16:02:53 436.000
SWISSCUBE 25 Apr 15:58:57 16:02:04 17° 296° (WNW) 16:05:00 437.505
Gurwin Techsat 1B 25 Apr 16:00:08 16:03:28 16° 271° (W) 16:06:34 435.225
AO-7 25 Apr 16:04:15 16:12:34 86° 253° (WSW) 16:20:55 29.400- 29.500
Cosmos 2504 25 Apr 16:06:29 16:12:28 18° 301° (WNW) 16:17:57 435.465 / 435.565
MOZHAYETS 4 25 Apr 16:20:53 16:22:36 12° 87° (E) 16:24:34
CUSAT 1 25 Apr 16:37:14 16:39:32 16° 83° (E) 16:42:22 437.405
CUTE-I 25 Apr 16:41:53 16:43:30 12° 59° (ENE) 16:45:24 437.470
Cosmos 2499 25 Apr 16:46:33 16:47:24 10° 75° (ENE) 16:49:04 435.465 / 435.565
VERMONT LUNAR 25 Apr 16:48:30 16:51:20 25° 156° (SSE) 16:54:12 437.305
STARS 25 Apr 16:48:53 16:52:59 36° 289° (WNW) 16:57:02 437.465
Cubesat XI-IV 25 Apr 16:50:20 16:52:58 14° 60° (ENE) 16:55:50 437.490
ISS 25 Apr 17:14:26 17:17:07 23° 20° (NNE) 17:19:50 145.825
DANDE 25 Apr 17:14:46 17:17:39 28° 89° (E) 17:21:20 436.750
PHONESAT 2.4 25 Apr 17:15:42 17:18:06 17° 151° (SSE) 17:20:34 2401.200-2431.200
JAS-2 25 Apr 17:28:49 17:35:25 28° 269° (W) 17:41:42 435.910
PCSat 25 Apr 17:31:54 17:37:18 63° 57° (ENE) 17:42:40 145.827
GONETS M04 25 Apr 17:41:01 17:49:40 59° 283° (WNW) 17:58:22
MOZHAYETS 4 25 Apr 17:55:49 18:00:23 65° 285° (WNW) 18:04:54
RS-15 25 Apr 17:58:47 18:07:49 27° 337° (NNW) 18:16:56 29.354- 29.394
AO-7 25 Apr 18:01:30 18:06:41 17° 273° (W) 18:11:23 29.400- 29.500
CUTE-I 25 Apr 18:17:31 18:22:51 82° 75° (ENE) 18:28:12 437.470
CUSAT 1 25 Apr 18:18:22 18:21:45 33° 291° (WNW) 18:26:04 437.405
VERMONT LUNAR 25 Apr 18:25:10 18:28:32 65° 172° (S) 18:31:54 437.305
Cubesat XI-IV 25 Apr 18:27:07 18:32:28 82° 257° (WSW) 18:37:50 437.490
Cosmos 2499 25 Apr 18:30:29 18:39:06 60° 92° (E) 18:47:35 435.465 / 435.565
PRISM 25 Apr 18:32:20 18:33:51 12° 89° (E) 18:35:36 437.425
ISS 25 Apr 18:50:30 18:53:44 65° 219° (SW) 18:56:57 145.825
PHONESAT 2.4 25 Apr 18:52:25 18:55:56 52° 166° (SSE) 18:59:26 2401.200-2431.200
DANDE 25 Apr 18:58:46 19:01:13 16° 299° (WNW) 19:03:58 436.750
M-CUBED/EXP-1 PRIME 25 Apr 19:01:11 19:05:11 41° 102° (ESE) 19:08:51 437.505
PCSat 25 Apr 19:16:34 19:20:16 18° 254° (WSW) 19:23:44 145.827
CUTE 1.7 + AOD 2 25 Apr 19:28:01 19:29:11 11° 63° (ENE) 19:30:35 437.475
CUBESAT XI-V 25 Apr 19:32:00 19:36:38 81° 283° (WNW) 19:41:15 437.345
STRAND 1 25 Apr 19:37:05 19:42:03 50° 100° (E) 19:47:00 437.568
AUBIESAT-1 25 Apr 19:43:31 19:47:43 71° 289° (WNW) 19:51:31 437.475
GONETS M04 25 Apr 19:46:02 19:49:02 11° 309° (NW) 19:51:22
HO-68 25 Apr 19:47:00 19:53:28 39° 64° (ENE) 20:00:02 435.675
GOMX 1 25 Apr 19:49:07 19:52:31 25° 68° (ENE) 19:56:07 467.674
BRITE-PL 25 Apr 20:00:54 20:04:55 51° 73° (ENE) 20:09:06 437.365/2234.400
CUTE-I 25 Apr 20:01:27 20:03:42 12° 273° (W) 20:05:36 437.470
VERMONT LUNAR 25 Apr 20:02:34 20:05:56 66° 188° (S) 20:09:17 437.305
SO-50 25 Apr 20:04:47 20:09:29 42° 49° (NE) 20:14:11 436.795
PRISM 25 Apr 20:05:43 20:09:44 54° 287° (WNW) 20:13:43 437.425
RS-15 25 Apr 20:16:57 20:25:19 23° 12° (NNE) 20:34:05 29.354- 29.394
COMPASS 1 25 Apr 20:18:04 20:21:31 25° 69° (ENE) 20:25:04 437.405
DOVE 4 25 Apr 20:24:59 20:28:56 39° 71° (ENE) 20:33:07 437.250
Cosmos 2499 25 Apr 20:25:02 20:32:48 32° 292° (WNW) 20:40:13 435.465 / 435.565
PHONESAT 2.4 25 Apr 20:30:29 20:34:04 75° 183° (S) 20:37:39 2401.200-2431.200
Oscar 11 25 Apr 20:33:39 20:36:19 17° 66° (ENE) 20:39:09 145.826/435.025
M-CUBED/EXP-1 PRIME 25 Apr 20:36:46 20:39:43 18° 301° (WNW) 20:42:24 437.505
DELFI C3 25 Apr 20:37:51 20:39:33 13° 65° (ENE) 20:41:26 145.870
SEEDS 25 Apr 20:42:45 20:46:57 58° 75° (ENE) 20:51:10 437.485
CANX-2 25 Apr 20:51:07 20:55:25 84° 258° (WSW) 20:59:46 2200.000
AAUSAT CUBESAT 2 25 Apr 20:59:50 21:04:00 64° 75° (ENE) 21:08:13 437.432
CUTE 1.7 + AOD 2 25 Apr 21:00:16 21:04:34 74° 258° (WSW) 21:08:54 437.475
DX 1 25 Apr 21:07:57 21:10:04 14° 64° (ENE) 21:12:22 434.975-435.025
CUBEBUG 2 25 Apr 21:08:10 21:12:00 31° 70° (ENE) 21:16:02 437.445
CINEMA 3 25 Apr 21:08:44 21:13:00 60° 74° (ENE) 21:17:29 145.822/145.860
STRAND 1 25 Apr 21:17:09 21:20:56 21° 296° (WNW) 21:24:34 437.568
Cosmos 2491 25 Apr 21:25:07 21:30:13 18° 79° (E) 21:35:50 435.465 / 435.565
GOMX 1 25 Apr 21:26:58 21:30:37 28° 266° (W) 21:34:21 467.674
YUBILEINY 25 Apr 21:32:00 21:40:14 44° 72° (ENE) 21:48:28 435.215
UWE-3 25 Apr 21:33:49 21:38:00 48° 72° (ENE) 21:42:21 435.000/436.395/437.385
HO-68 25 Apr 21:34:20 21:41:08 43° 262° (W) 21:47:54 435.675
O/OREOS (USA 219) 25 Apr 21:37:23 21:40:36 20° 102° (ESE) 21:43:56 437.305
VERMONT LUNAR 25 Apr 21:40:15 21:43:08 26° 204° (SSW) 21:45:59 437.305
BRITE-PL 25 Apr 21:42:01 21:43:58 13° 272° (W) 21:45:43 437.365/2234.400
FUNcube-1 25 Apr 21:43:15 21:47:24 47° 73° (ENE) 21:51:43 145.935
SO-50 25 Apr 21:45:44 21:49:52 26° 247° (WSW) 21:53:53 436.795
UKube-1 25 Apr 21:48:58 21:52:50 34° 70° (ENE) 21:56:46 .
COMPASS 1 25 Apr 21:53:28 21:57:09 28° 265° (W) 22:00:47 437.405
HUMSAT D 25 Apr 22:03:25 22:07:20 38° 72° (ENE) 22:11:20 437.325/437.525
DOVE 4 25 Apr 22:04:01 22:07:00 18° 270° (W) 22:09:56 437.250
Oscar 11 25 Apr 22:07:57 22:12:10 47° 261° (W) 22:16:25 145.826/435.025
ZACube-1 25 Apr 22:08:28 22:12:49 89° 271° (W) 22:17:18 437.345
PHONESAT 2.4 25 Apr 22:08:46 22:12:09 40° 199° (SSW) 22:15:31 2401.200-2431.200
DELFI C3 25 Apr 22:10:15 22:14:16 57° 260° (W) 22:18:19 145.870
VELOX 1 25 Apr 22:13:32 22:17:21 30° 69° (ENE) 22:21:14 145.980
CUBEBUG 1 25 Apr 22:19:48 22:22:34 17° 66° (ENE) 22:25:28 437.445
SEEDS 25 Apr 22:21:22 22:23:13 12° 272° (W) 22:24:50 437.485
RS-15 25 Apr 22:30:31 22:41:29 49° 43° (NE) 22:53:01 29.354- 29.394
AISAT 25 Apr 22:31:00 22:35:13 48° 72° (ENE) 22:39:29 437.250
AAUSAT CUBESAT 2 25 Apr 22:38:54 22:40:08 11° 272° (W) 22:41:08 437.432
DX 1 25 Apr 22:41:37 22:45:53 58° 259° (W) 22:50:11 434.975-435.025
ANTELSAT 25 Apr 22:43:33 22:47:22 25° 93° (E) 22:51:13 437.575/2403.000
CUBEBUG 2 25 Apr 22:45:10 22:48:46 24° 267° (W) 22:52:23 437.445
CINEMA 3 25 Apr 22:48:48 22:50:46 12° 273° (W) 22:52:33 145.822/145.860
QB50P1 25 Apr 22:50:46 22:52:32 13° 89° (E) 22:54:32 145.935-145.965
50 SAT 25 Apr 22:56:06 23:00:06 85° 257° (WSW) 23:04:10 437.505
TISAT 1 25 Apr 23:09:55 23:11:35 12° 64° (ENE) 23:13:28 437.305
ESTCUBE 1 25 Apr 23:10:04 23:14:33 68° 74° (ENE) 23:19:03 437.505/2401.250
UWE-3 25 Apr 23:12:09 23:14:54 16° 271° (W) 23:17:31 435.000/436.395/437.385
O/OREOS (USA 219) 25 Apr 23:15:24 23:19:46 41° 298° (WNW) 23:24:06 437.305
QB50P2 25 Apr 23:15:31 23:19:01 24° 94° (E) 23:22:36 145.880/145.840
Cosmos 2491 25 Apr 23:17:16 23:26:01 89° 286° (WNW) 23:34:51 435.465 / 435.565
FUNcube-1 25 Apr 23:21:22 23:24:05 16° 271° (W) 23:26:41 145.935
UKube-1 25 Apr 23:25:44 23:29:05 21° 266° (W) 23:32:21 .
YUBILEINY 25 Apr 23:29:01 23:37:03 41° 272° (W) 23:44:54 435.215
TIGRISAT 25 Apr 23:33:06 23:37:51 78° 101° (E) 23:42:31 435.000
NANOSAT C BR1 25 Apr 23:33:14 23:37:12 37° 97° (E) 23:41:12 145.865
POPSAT HIP 1 25 Apr 23:36:26 23:40:30 40° 98° (E) 23:44:34 437.405
UNISAT 6 25 Apr 23:37:29 23:42:15 89° 103° (ESE) 23:46:55 437.425
SPROUT 25 Apr 23:38:42 23:42:26 31° 70° (ENE) 23:46:16 437.525
HUMSAT D 25 Apr 23:40:16 23:43:17 18° 269° (W) 23:46:13 437.325/437.525
PHONESAT 2.4 25 Apr 23:48:39 23:49:51 11° 213° (SSW) 23:50:56 2401.200-2431.200
VELOX 1 25 Apr 23:50:18 23:53:57 24° 266° (W) 23:57:32 145.980
CUBEBUG 1 25 Apr 23:54:29 23:58:38 44° 261° (W) 00:02:47 437.445
BUGSAT 1 26 Apr 00:00:13 00:04:16 51° 100° (E) 00:08:23 437.445
Cosmos 2504 26 Apr 00:02:20 00:09:38 37° 70° (ENE) 00:16:33 435.465 / 435.565
POLYITAN 1 26 Apr 00:06:06 00:10:26 90° 98° (E) 00:14:46 437.675
DUCHIFAT 1 26 Apr 00:06:55 00:11:13 88° 96° (E) 00:15:30 145.980
AISAT 26 Apr 00:09:26 00:12:09 15° 270° (W) 00:14:42 437.250
ANTELSAT 26 Apr 00:19:56 00:24:14 35° 290° (WNW) 00:28:25 437.575/2403.000
QB50P1 26 Apr 00:24:37 00:28:50 57° 286° (WNW) 00:33:02 145.935-145.965
AIST 1 26 Apr 00:31:38 00:35:40 41° 93° (E) 00:39:43
TISAT 1 26 Apr 00:42:47 00:46:56 61° 259° (W) 00:51:06 437.305
RS-15 26 Apr 00:43:04 00:54:18 57° 246° (WSW) 01:05:54 29.354- 29.394
ESTCUBE 1 26 Apr 00:50:17 00:51:59 12° 272° (W) 00:53:23 437.505/2401.250
QB50P2 26 Apr 00:51:10 00:54:56 29° 290° (WNW) 00:58:38 145.880/145.840
ITUPSAT 1 26 Apr 00:54:06 00:58:08 28° 68° (ENE) 01:02:16 437.325
NANOSAT C BR1 26 Apr 01:09:39 01:12:50 20° 293° (WNW) 01:15:55 145.865
TIGRISAT 26 Apr 01:11:58 01:14:01 12° 298° (WNW) 01:15:50 435.000
POPSAT HIP 1 26 Apr 01:13:04 01:16:07 19° 293° (WNW) 01:19:03 437.405
SPROUT 26 Apr 01:15:12 01:18:36 22° 267° (W) 01:21:57 437.525
UNISAT 6 26 Apr 01:17:00 01:18:22 11° 299° (WNW) 01:19:28 437.425
Cosmos 2491 26 Apr 01:18:17 01:24:23 19° 300° (WNW) 01:30:05 435.465 / 435.565
BEESAT 26 Apr 01:24:03 01:28:43 57° 73° (ENE) 01:33:25 436.000
SWISSCUBE 26 Apr 01:26:32 01:31:17 66° 74° (ENE) 01:36:02 437.505
Oscar 19 26 Apr 01:27:54 01:31:49 22° 92° (E) 01:35:53 437.125/150
BUGSAT 1 26 Apr 01:37:04 01:39:23 14° 295° (WNW) 01:41:34 437.445
Cosmos 2504 26 Apr 01:55:42 02:03:12 44° 271° (W) 02:10:07 435.465 / 435.565
GONETS M04 26 Apr 01:56:25 02:00:48 15° 55° (NE) 02:05:45
ITAMSAT 1 26 Apr 02:04:09 02:06:42 14° 88° (E) 02:09:33 435.822/435.867
BEESAT 3 26 Apr 02:04:38 02:07:39 21° 113° (ESE) 02:10:48 437.485
BEESAT 2 26 Apr 02:06:39 02:09:26 18° 112° (ESE) 02:12:21 435.950
STARS 26 Apr 02:10:37 02:13:45 20° 66° (ENE) 02:17:02 437.465
AIST 1 26 Apr 02:10:46 02:13:35 16° 291° (WNW) 02:16:15
ITUPSAT 1 26 Apr 02:31:42 02:35:59 31° 264° (W) 02:40:13 437.325
Gurwin Techsat 1B 26 Apr 02:34:17 02:38:34 25° 93° (E) 02:42:57 435.225
KKS-1 26 Apr 02:51:38 02:56:04 85° 76° (ENE) 03:00:33 437.445
BEESAT 26 Apr 03:04:05 03:07:00 15° 270° (W) 03:09:42 436.000
Oscar 19 26 Apr 03:06:28 03:11:27 46° 290° (WNW) 03:16:22 437.125/150
SWISSCUBE 26 Apr 03:07:16 03:09:40 13° 271° (W) 03:11:50 437.505
AIST 2 26 Apr 03:08:13 03:11:46 26° 114° (ESE) 03:15:24 435.215
CUSAT 1 26 Apr 03:10:19 03:16:43 30° 68° (ENE) 03:23:52 437.405
MOZHAYETS 4 26 Apr 03:23:23 03:25:30 13° 63° (ENE) 03:27:51
HORYU 2 26 Apr 03:28:59 03:31:29 15° 90° (E) 03:34:10 437.375
BEESAT 3 26 Apr 03:41:38 03:45:28 38° 309° (NW) 03:49:20 437.485
ITAMSAT 1 26 Apr 03:41:40 03:46:49 70° 287° (WNW) 03:51:59 435.822/435.867
BEESAT 2 26 Apr 03:43:19 03:47:16 43° 308° (NW) 03:51:16 435.950
STARS 26 Apr 03:45:52 03:49:59 39° 262° (W) 03:54:07 437.465
GONETS M04 26 Apr 03:50:49 03:59:42 72° 80° (E) 04:08:31
DANDE 26 Apr 03:51:19 03:58:21 45° 73° (ENE) 04:06:28 436.750
AO-7 26 Apr 04:06:08 04:13:15 32° 95° (E) 04:20:34 29.400- 29.500
Gurwin Techsat 1B 26 Apr 04:13:45 04:18:44 42° 290° (WNW) 04:23:41 435.225
Cosmos 2499 26 Apr 04:23:36 04:28:47 19° 61° (ENE) 04:34:03 435.465 / 435.565
JAS-2 26 Apr 04:38:07 04:44:17 51° 97° (E) 04:49:46 435.910
AIST 2 26 Apr 04:46:22 04:50:15 33° 311° (NW) 04:54:09 435.215
CUSAT 1 26 Apr 04:52:21 04:59:55 65° 264° (W) 05:08:08 437.405
AUBIESAT-1 26 Apr 04:57:35 05:00:50 19° 60° (ENE) 05:04:13 437.475
MOZHAYETS 4 26 Apr 04:57:36 05:02:14 69° 259° (W) 05:06:53
CUBESAT XI-V 26 Apr 05:01:53 05:03:09 11° 62° (ENE) 05:04:41 437.345
HORYU 2 26 Apr 05:04:07 05:08:31 52° 287° (WNW) 05:12:52 437.375
PRISM 26 Apr 05:24:08 05:24:55 11° 63° (ENE) 05:25:55 437.425
DANDE 26 Apr 05:34:36 05:41:40 43° 268° (W) 05:49:28 436.750
M-CUBED/EXP-1 PRIME 26 Apr 05:48:29 05:53:14 62° 68° (ENE) 05:58:01 437.505
GONETS M04 26 Apr 05:49:00 05:55:48 24° 278° (W) 06:02:13
AO-7 26 Apr 05:58:24 06:06:32 59° 294° (WNW) 06:14:37 29.400- 29.500
Cosmos 2499 26 Apr 06:15:20 06:23:10 80° 264° (W) 06:30:24 435.465 / 435.565
JAS-2 26 Apr 06:23:51 06:28:59 25° 298° (WNW) 06:33:33 435.910
AUBIESAT-1 26 Apr 06:30:31 06:35:14 57° 255° (WSW) 06:39:58 437.475
CUTE-I 26 Apr 06:34:48 06:39:29 32° 95° (E) 06:44:14 437.470
CUBESAT XI-V 26 Apr 06:35:22 06:40:01 82° 258° (WSW) 06:44:39 437.345
CUSAT 1 26 Apr 06:38:31 06:41:47 12° 278° (W) 06:44:29 437.405
Cubesat XI-IV 26 Apr 06:44:24 06:49:22 39° 97° (E) 06:54:21 437.490
STRAND 1 26 Apr 06:53:06 06:58:10 75° 74° (ENE) 07:03:18 437.568
PRISM 26 Apr 06:55:42 06:59:52 73° 257° (WSW) 07:04:02 437.425
M-CUBED/EXP-1 PRIME 26 Apr 07:25:30 07:28:29 16° 266° (W) 07:31:17 437.505
O/OREOS (USA 219) 26 Apr 07:45:54 07:50:06 38° 61° (ENE) 07:54:18 437.305
AO-7 26 Apr 07:53:45 07:57:47 14° 314° (NW) 08:01:23 29.400- 29.500
BRITE-PL 26 Apr 08:04:58 08:08:38 20° 91° (E) 08:12:39 437.365/2234.400
Cosmos 2499 26 Apr 08:11:43 08:15:00 13° 283° (WNW) 08:17:41 435.465 / 435.565
PCSat 26 Apr 08:13:36 08:18:52 56° 115° (ESE) 08:24:12 145.827
CUTE-I 26 Apr 08:14:49 08:19:34 33° 292° (WNW) 08:24:16 437.470
DOVE 4 26 Apr 08:24:44 08:27:05 13° 87° (E) 08:29:46 437.250
Cubesat XI-IV 26 Apr 08:24:51 08:29:19 28° 294° (WNW) 08:33:43 437.490
STRAND 1 26 Apr 08:35:39 08:38:03 13° 272° (W) 08:40:08 437.568
CANX-2 26 Apr 08:37:31 08:40:13 17° 91° (E) 08:43:02 2200.000
CUTE 1.7 + AOD 2 26 Apr 08:46:19 08:49:19 19° 91° (E) 08:52:25 437.475
HO-68 26 Apr 09:01:28 09:08:02 38° 96° (E) 09:14:38 435.675
CINEMA 3 26 Apr 09:04:16 09:07:21 17° 89° (E) 09:10:39 145.822/145.860
O/OREOS (USA 219) 26 Apr 09:25:57 09:29:17 20° 258° (WSW) 09:32:30 437.305
UWE-3 26 Apr 09:26:20 09:27:09 11° 86° (E) 09:28:16 435.000/436.395/437.385
GOMX 1 26 Apr 09:26:39 09:31:49 77° 101° (E) 09:37:15 467.674
Cosmos 2491 26 Apr 09:27:33 09:35:57 47° 73° (ENE) 09:44:25 435.465 / 435.565
COMPASS 1 26 Apr 09:36:13 09:40:16 45° 98° (E) 09:44:17 437.405
BRITE-PL 26 Apr 09:42:27 09:47:25 53° 287° (WNW) 09:52:42 437.365/2234.400
ANTELSAT 26 Apr 09:43:01 09:46:32 23° 67° (ENE) 09:50:13 437.575/2403.000
QB50P1 26 Apr 09:45:22 09:46:09 11° 63° (ENE) 09:47:10 145.935-145.965
DELFI C3 26 Apr 09:50:26 09:53:14 18° 92° (E) 09:56:07 145.870
Oscar 11 26 Apr 09:55:19 09:59:07 29° 95° (E) 10:02:55 145.826/435.025
ZACube-1 26 Apr 09:57:53 10:01:05 19° 91° (E) 10:04:24 437.345
PCSat 26 Apr 09:58:14 10:02:41 24° 314° (NW) 10:07:03 145.827
DOVE 4 26 Apr 10:00:17 10:05:24 76° 285° (WNW) 10:10:42 437.250
SEEDS 26 Apr 10:02:38 10:06:53 72° 285° (WNW) 10:11:04 437.485
QB50P2 26 Apr 10:09:15 10:12:16 20° 67° (ENE) 10:15:25 145.880/145.840
CANX-2 26 Apr 10:12:20 10:16:24 42° 288° (WNW) 10:20:24 2200.000
AAUSAT CUBESAT 2 26 Apr 10:18:13 10:22:25 68° 284° (WNW) 10:26:32 437.432
CUTE 1.7 + AOD 2 26 Apr 10:21:27 10:25:25 37° 288° (WNW) 10:29:19 437.475
SO-50 26 Apr 10:22:36 10:24:03 12° 108° (ESE) 10:25:48 436.795
BEESAT 3 26 Apr 10:22:56 10:25:40 17° 42° (NE) 10:28:27 437.485
